SCP
3 3 2 2 2 1 1 1 1 1 1 1 1 1 1 1 1 1 1 1 1 1 1 1 1 1 1 1 1 1 1 1 1 1 1 1 1 1 1 1 1 1 1
3 3 2 2 2 2 2 1 1 1 1 1 1 1 1 1 1 1 1 1 2 1 1 1 1 1 1 1 1 1 1 1 1 1 1 1 1 1 1 1 1 1 1
3 3 2 2 2 2 2 2 2 1 1 1 1 1 1 1 1 1 1 1 2 2 1 1 1 1 1 1 1 1 1 1 1 1 1 1 1 0 0 0 0 1 0
4 3 3 3 2 2 2 2 2 1 1 1 1 1 0 0 0 0 1 1 1 2 1 1 1 1 1 1 1 1 1 1 1 1 1 1 0 0 0 0 0 0 0
4 4 4 3 3 3 2 2 1 1 1 1 1 0 0 0 0 0 1 1 1 1 1 1 1 1 1 1 1 1 1 1 1 1 1 1 0 0 0 0 0 0 0
4 5 5 4 3 3 2 2 1 1 1 1 1 0 0 0 0 0 0 1 1 1 1 1 1 1 1 1 1 1 1 1 1 1 1 1 0 0 0 0 0 0 0
3 4 5 4 3 3 2 2 1 1 1 0 0 0 0 0 0 0 0 0 0 1 1 0 1 1 1 1 0 0 1 1 1 1 1 1 1 0 0 0 0 0 0
2 3 3 2 2 2 2 1 1 1 1 0 0 0 0 0 0 0 0 0 0 0 0 0 0 0 0 0 0 0 1 1 1 1 1 1 1 0 0 0 0 0 0
1 2 1 1 1 1 1 1 1 1 1 0 0 0 0 0 0 0 0 0 0 0 0 0 0 0 0 0 0 0 0 1 1 1 1 1 1 0 0 0 0 0 0
1 1 1 1 1 1 1 1 1 1 1 0 0 0 0 0 0 0 0 0 0 0 0 0 0 0 0 0 0 0 0 0 0 0 0 0 0 0 0 1 1 0 0
1 1 1 1 1 1 1 1 1 1 1 0 0 0 0 0 0 0 0 0 0 0 0 0 0 0 0 0 0 0 0 0 0 0 0 0 0 0 1 1 1 0 0
1 1 1 1 1 1 1 1 1 1 0 0 0 0 0 0 0 0 0 0 0 0 0 0 0 0 0 0 0 0 0 0 0 0 0 0 0 0 0 0 0 0 0
1 1 1 1 1 1 1 0 0 0 0 0 0 0 0 0 0 0 0 0 0 0 0 0 0 0 0 0 0 0 0 0 0 0 0 0 0 0 0 0 0 0 0
1 1 1 1 1 1 1 0 0 0 0 0 0 0 0 0 0 0 0 0 0 0 0 0 0 0 0 0 0 0 0 0 0 0 0 0 0 0 0 0 0 0 0
0 0 0 0 0 0 0 0 0 0 0 0 0 0 0 0 0 0 0 0 0 0 0 0 0 0 0 0 0 0 0 0 0 0 0 0 0 0 0 0 0 0 0
0 0 0 0 0 0 0 0 0 0 0 0 0 0 0 0 0 0 0 0 0 0 0 0 0 0 0 0 0 0 0 0 0 0 0 0 0 0 0 0 0 0 0
0 0 0 0 0 0 0 0 0 0 0 0 0 0 0 0 0 0 0 0 0 0 0 0 0 0 0 0 0 0 0 0 0 0 0 0 0 0 0 0 0 0 0
0 0 0 0 0 0 0 0 0 0 0 0 0 0 0 0 0 0 0 0 0 0 0 0 0 0 0 0 0 0 0 0 0 0 0 0 0 0 0 0 0 0 0
0 0 0 0 0 0 0 0 0 0 0 0 0 0 0 0 0 0 0 0 0 0 0 0 0 0 0 0 0 0 0 0 0 0 0 0 0 0 0 0 0 0 0
0 0 0 0 0 0 0 0 0 0 0 0 0 0 0 0 0 0 0 0 0 0 0 0 0 0 0 0 0 0 0 0 0 0 0 0 0 0 0 0 0 0 0
0 0 0 0 0 0 0 0 0 0 0 0 0 0 0 0 0 0 0 0 0 0 0 0 0 0 0 0 0 0 0 0 0 0 0 0 0 0 0 0 0 0 0
0 0 0 0 0 0 0 0 0 0 0 0 0 0 0 0 0 0 0 0 0 0 0 0 0 0 0 0 0 0 0 0 0 0 0 0 0 0 0 0 0 0 0
0 0 0 0 0 0 0 0 0 0 0 0 0 0 0 0 0 0 0 0 0 0 0 0 0 0 0 0 0 0 0 0 0 0 0 0 0 0 0 0 0 0 0
0 0 0 0 0 0 0 0 0 0 0 0 0 0 0 0 0 0 0 0 0 0 0 0 0 0 0 0 0 0 0 0 0 0 0 0 0 0 0 0 0 0 0
0 0 0 0 0 0 0 0 0 0 0 0 0 0 0 0 0 0 0 0 0 0 0 0 0 0 0 0 0 0 0 0 0 0 0 0 0 0 0 0 0 0 0
0 0 0 0 0 0 0 0 0 0 0 0 0 0 0 0 0 0 0 0 0 0 0 0 0 0 0 0 0 0 0 0 0 0 0 0 0 0 0 0 0 0 0
Wind_Speed
5 4 3 3 3 3 4 3 3 3 3 3 2 3 2 2 2 2 1 4 5 5 5 5 6 5 5 5 5 5 5 6 6 6 5 5 5 5 5 4 4 3 2
5 5 4 4 4 4 4 4 4 4 3 3 3 3 3 3 3 3 3 4 7 7 7 7 8 8 8 7 8 8 8 8 9 9 9 8 8 8 8 8 8 7 6
5 5 5 5 4 4 4 4 4 3 3 3 4 4 4 4 4 5 5 4 5 8 9 9 9 10 9 9 10 10 10 10 10 11 11 11 11 11 10 10 10 11 11
6 5 5 5 4 4 4 4 4 4 3 4 4 4 4 5 6 6 6 6 5 5 9 12 12 11 11 11 11 11 11 11 11 11 11 11 11 11 11 11 11 11 11
6 5 5 4 5 4 4 5 4 4 5 5 5 5 4 5 6 6 7 7 7 6 6 10 13 13 12 12 12 13 13 13 13 13 13 12 12 12 11 11 11 11 10
5 5 4 5 5 5 4 5 5 5 5 6 7 6 5 5 5 5 6 6 6 7 7 7 7 9 14 14 13 13 13 14 13 13 12 12 12 12 11 10 10 10 10
4 4 4 4 5 5 6 7 6 7 5 6 6 5 5 6 6 5 5 5 6 7 7 7 6 6 6 13 13 13 13 13 12 12 12 11 11 11 11 11 11 10 10
2 3 3 4 4 4 6 7 7 5 4 4 4 5 4 3 4 4 4 5 6 6 7 7 7 7 5 4 9 13 12 12 12 12 12 11 11 11 11 10 10 10 10
1 1 2 3 4 4 5 7 8 7 7 4 3 4 5 5 3 2 3 4 4 5 5 5 7 6 6 5 5 9 12 11 11 11 10 10 10 10 10 10 10 10 10
2 1 1 2 3 3 4 6 7 5 8 6 3 1 2 5 6 4 2 3 4 4 4 4 5 5 5 4 6 9 11 10 10 10 10 9 9 9 9 9 9 9 9
3 2 2 2 2 2 3 4 5 6 5 6 4 3 3 3 3 5 5 4 3 3 3 3 3 3 3 3 3 5 8 9 9 9 9 9 9 9 9 9 9 9 10
3 4 3 3 2 2 2 3 4 6 5 5 4 4 4 4 4 4 5 6 4 2 2 2 2 2 2 2 3 5 6 6 7 7 7 7 7 8 9 9 9 10 10
2 3 3 3 3 3 3 4 4 4 4 5 4 3 3 2 4 4 7 6 4 2 2 1 1 1 1 1 1 3 4 4 4 4 5 5 6 7 8 8 9 9 10
3 4 4 5 5 5 5 5 5 5 5 5 5 5 4 3 4 5 6 8 6 3 2 1 1 1 1 1 1 2 2 2 2 2 3 3 4 5 6 7 8 8 8
5 6 6 6 6 6 6 7 7 7 7 7 7 7 5 4 4 4 5 6 7 6 2 1 1 1 0 0 1 1 1 2 2 1 1 1 2 3 4 5 6 6 7
6 7 7 7 7 7 7 8 8 8 9 7 6 8 7 5 6 5 5 4 4 5 4 2 1 1 0 1 1 0 1 2 2 2 1 1 1 2 2 3 4 5 5
7 7 7 8 8 9 8 10 9 10 11 9 8 9 9 7 7 6 5 5 5 5 7 3 2 1 2 2 2 2 1 1 1 2 2 1 1 1 2 2 3 4 4
8 8 8 9 9 10 9 10 11 10 11 10 9 9 9 7 8 6 6 6 5 5 6 6 2 3 3 2 2 2 2 1 1 2 2 1 1 1 2 2 2 2 3
9 9 9 10 10 10 10 10 11 11 11 10 9 9 8 9 9 7 7 7 6 6 5 6 3 2 2 2 2 2 3 3 2 2 2 2 2 2 2 2 2 3 3
10 9 10 9 9 10 10 10 11 11 11 10 10 9 8 8 8 8 7 7 7 7 6 5 4 2 2 2 2 2 2 3 2 3 4 3 3 3 2 3 3 3 4
10 9 10 10 9 8 9 10 10 11 10 11 10 9 9 10 10 7 6 6 7 6 5 5 3 2 2 2 2 2 2 2 1 2 3 2 2 2 2 3 3 4 5
9 9 10 9 9 8 12 13 10 9 9 10 9 8 9 10 12 13 12 9 7 6 5 3 2 2 1 0 0 1 1 2 2 2 3 2 2 2 2 2 4 5 6
9 9 9 9 9 9 13 13 13 9 9 8 7 7 7 7 8 9 11 12 10 8 6 4 3 2 2 2 1 0 0 1 2 2 2 2 2 3 3 3 5 6 6
8 7 8 8 8 9 12 13 13 10 9 8 8 7 7 7 6 7 8 8 7 5 4 2 2 2 2 2 2 1 0 2 3 1 1 2 2 3 3 3 4 5 6
7 6 6 7 8 7 10 11 10 7 8 8 7 7 7 7 8 8 7 6 5 4 4 4 1 1 3 4 4 2 1 1 2 1 0 2 2 3 3 3 3 5 6
6 7 8 7 7 6 8 10 9 6 6 5 5 6 8 7 7 7 6 5 4 3 3 4 3 3 2 1 5 3 2 1 1 2 1 1 2 2 3 3 3 3 4
Wind_Direction
186 183 183 180 179 173 170 164 165 165 160 156 149 143 137 131 113 96 102 125 129 130 133 133 126 122 121 115 108 106 105 101 97 92 88 84 79 74 69 63 55 54 52
187 185 185 186 186 183 174 167 169 167 161 147 142 136 123 109 96 94 85 88 101 105 106 107 109 111 110 105 101 96 94 91 86 83 78 75 72 68 64 60 58 55 52
188 188 189 192 191 184 172 161 158 152 148 140 128 114 103 99 94 86 81 74 79 86 92 96 94 95 96 97 96 94 90 87 85 83 80 77 73 69 65 62 60 59 58
187 187 191 196 183 175 172 168 161 149 138 131 116 100 93 93 88 82 77 75 73 75 81 86 85 85 85 88 91 91 88 84 81 79 78 75 72 69 66 64 61 60 57
188 185 193 191 176 172 174 176 164 149 142 130 112 93 83 82 82 83 79 75 74 74 74 79 81 81 83 83 84 85 85 82 79 75 73 71 69 67 65 62 60 57 54
191 188 190 187 178 174 172 168 154 142 139 131 112 91 76 74 73 74 79 77 75 76 75 72 69 72 77 80 81 82 82 80 77 75 72 68 65 63 61 58 56 54 53
181 186 187 183 179 181 175 164 151 145 137 133 116 102 73 66 71 68 76 84 81 78 78 75 72 68 68 72 76 79 80 80 78 75 72 69 65 61 59 56 54 52 49
151 176 182 186 179 177 167 165 157 150 149 159 139 131 126 95 62 58 72 88 88 83 80 77 75 71 67 61 73 76 74 76 77 76 72 67 63 59 55 52 49 46 44
124 159 180 180 176 173 176 174 171 165 165 177 163 148 153 161 131 74 65 80 88 88 87 82 78 72 71 65 62 67 71 70 72 70 67 65 62 57 52 49 47 44 40
73 95 155 161 169 168 180 179 175 170 167 171 173 149 125 139 145 138 102 80 85 87 88 90 83 76 69 64 68 75 73 67 65 64 64 62 59 56 51 48 46 41 37
47 54 74 99 124 147 172 177 173 172 172 171 163 146 114 95 105 133 142 137 96 71 76 85 87 79 68 65 61 75 75 69 64 61 58 56 53 50 47 45 41 38 35
43 40 64 79 93 110 135 158 165 169 168 162 154 148 150 149 150 133 137 143 126 92 67 66 82 81 68 59 59 70 73 70 65 59 55 53 51 49 46 43 40 38 35
54 36 52 70 78 88 95 105 117 128 137 142 139 137 137 135 136 130 130 130 113 95 82 63 61 76 70 53 37 33 53 60 60 56 52 51 48 46 44 41 38 35 31
76 61 62 67 69 79 87 91 92 94 97 107 107 113 112 106 118 131 135 137 123 98 84 87 56 92 69 47 347 358 15 23 34 45 50 49 44 41 40 37 34 30 26
81 73 70 69 67 74 85 90 87 86 86 87 94 95 91 89 97 103 119 134 136 136 132 145 112 68 87 224 328 4 346 337 344 353 21 32 32 30 30 29 29 26 24
74 76 72 70 71 75 81 87 87 86 85 77 84 88 86 88 89 94 101 95 103 124 127 131 103 64 60 71 67 49 311 318 320 316 312 331 354 357 5 13 18 20 19
70 73 75 75 74 75 77 83 83 85 85 79 77 83 82 85 90 88 90 93 93 104 115 101 71 55 66 58 31 12 353 320 315 315 313 309 304 312 327 346 360 6 7
69 70 74 75 76 75 76 81 84 81 84 82 80 83 81 84 82 85 90 91 90 90 115 114 78 50 51 42 25 11 11 7 326 328 326 307 290 285 285 301 318 334 341
70 67 69 71 74 75 75 77 81 80 78 76 76 80 81 88 85 84 87 89 89 88 91 108 91 60 54 39 34 20 16 4 355 7 359 332 310 298 288 281 284 298 308
70 67 67 69 72 76 77 78 81 79 76 72 70 72 75 85 93 93 91 92 95 92 92 95 90 68 53 32 43 26 10 3 355 360 1 358 354 330 302 291 284 286 291
70 69 68 65 65 71 77 82 81 82 79 74 67 66 71 81 84 89 102 104 103 99 96 92 84 69 48 38 33 360 358 338 346 1 334 346 344 332 320 306 292 287 287
67 68 67 67 65 70 77 78 83 79 77 77 73 66 67 68 75 79 89 95 104 113 116 107 99 99 81 59 359 0 359 1 339 4 337 324 336 306 300 292 296 294 289
69 67 66 69 69 72 80 80 79 80 75 70 69 68 68 62 71 80 79 75 72 84 107 128 130 153 176 193 182 71 9 313 291 323 327 307 320 296 296 294 297 296 294
71 70 68 70 71 71 83 86 83 77 72 65 63 67 74 63 67 87 86 76 66 59 68 101 158 195 209 200 194 196 252 276 276 264 271 295 312 300 305 304 302 300 301
72 67 64 67 72 65 78 88 87 81 74 63 58 59 69 70 69 84 86 79 62 34 33 45 126 230 236 216 182 168 171 359 338 312 273 281 306 310 300 295 302 308 304
79 76 67 59 66 65 75 88 90 91 83 70 56 49 55 66 71 80 85 84 66 20 6 16 26 26 41 86 179 192 195 210 293 292 244 258 299 321 310 295 297 307 309